Volver al catálogo

KOSMOS-2543 PROJECTILE

ActivoMilitarSSO
NORAD 45915·PAYLOAD·🇷🇺 Russia
Este nombre de satélite aún no ha sido confirmado por fuentes oficiales.

Lanzado Nov 25, 2019 desde Plesetsk Cosmodrome

Loading…

Próximos Pases (próximas 24 horas)

TLE

ActualizadoSource: Space-Track

Época: Sep 14, 2026, 14:58 UTC

1 45915U 19079E   26257.62394675  .00001880  00000-0  17076-3 0  9995
2 45915  97.6687 258.9831 0169943  53.3949 308.2764 14.86050130332938

Sigue KOSMOS-2543 PROJECTILE en tiempo real con AllMySat

Download on the App Store